Weather History for Fort Lauderdale, FL

Change the Weather History Date:

Thursday, January 24, 2013

  Actual Average Record
Temperature  
Mean Temperature 67 °F -  
Max Temperature 75 °F 77 °F 83 °F (1957)
Min Temperature 59 °F 59 °F 35 °F (1960)
Cooling Degree Days 2    
Growing Degree Days 17 (Base 50)    
Moisture  
Dew Point 51 °F    
Average Humidity 61    
Maximum Humidity 81    
Minimum Humidity 41    
Precipitation  
Precipitation 0.00 in - - ()
Sea Level Pressure  
Sea Level Pressure 30.26 in    
Wind  
Wind Speed 4 mph (North)    
Max Wind Speed 9 mph    
Max Gust Speed -    
Visibility 10 miles    
Events      
Averages and records for this station are not official NWS values.
T = Trace of Precipitation, MM = Missing Value Source: NWS Daily Summary

Daily Weather History Graph

Daily Weather History Graph

Search for Another Location

Airport:

Trip Planner

Search our weather history database for the weather conditions in past years. The results will help you decide how hot, cold, wet, or windy it might be!

Date:

Astronomy

Jan. 24, 2013 Rise Set
Actual Time 7:08 AM EST 5:57 PM EST
Civil Twilight 6:43 AM EST 6:22 PM EST
Nautical Twilight 6:15 AM EST 6:50 PM EST
Astronomical Twilight 5:48 AM EST 7:17 PM EST
Moon 4:01 PM EST (1/24) 5:01 AM EST (1/24)
Length of Visible Light 11h 38m
Length of Day
10h 49m
Waxing Gibbous, 94% of the Moon is Illuminated
Jan 24
Waxing Gibbous
Jan 26
Full
Feb 3
Last Quarter
Feb 10
New
Feb 17
First Quarter

Hourly Weather History & Observations

Time (EST) Temp. Dew Point Humidity Pressure Visibility Wind Dir Wind Speed Gust Speed Precip Events Conditions
12:53 AM 60.1 °F 54.0 °F 80% 30.26 in 10.0 mi Calm Calm - N/A   Clear
1:53 AM 60.1 °F 54.0 °F 80% 30.26 in 10.0 mi NNW 4.6 mph - N/A   Clear
2:53 AM 60.1 °F 54.0 °F 80% 30.25 in 10.0 mi North 4.6 mph - N/A   Clear
3:53 AM 60.1 °F 54.0 °F 80% 30.24 in 10.0 mi NNW 4.6 mph - N/A   Clear
4:53 AM 59.0 °F 53.1 °F 81% 30.24 in 10.0 mi NW 3.5 mph - N/A   Clear
5:53 AM 59.0 °F 53.1 °F 81% 30.25 in 10.0 mi NNW 5.8 mph - N/A   Clear
6:53 AM 59.0 °F 52.0 °F 78% 30.25 in 10.0 mi North 4.6 mph - N/A   Clear
7:53 AM 61.0 °F 50.0 °F 67% 30.28 in 10.0 mi North 5.8 mph - N/A   Partly Cloudy
8:53 AM 66.0 °F 48.0 °F 52% 30.30 in 10.0 mi North 5.8 mph - N/A   Partly Cloudy
9:53 AM 70.0 °F 46.0 °F 42% 30.30 in 10.0 mi North 5.8 mph - N/A   Scattered Clouds
10:53 AM 73.0 °F 48.9 °F 42% 30.30 in 10.0 mi Calm Calm - N/A   Scattered Clouds
11:53 AM 75.0 °F 50.0 °F 41% 30.28 in 10.0 mi Variable 5.8 mph - N/A   Partly Cloudy
12:53 PM 75.0 °F 51.1 °F 43% 30.26 in 10.0 mi Calm Calm - N/A   Partly Cloudy
1:53 PM 75.0 °F 52.0 °F 44% 30.23 in 10.0 mi Variable 4.6 mph - N/A   Scattered Clouds
2:53 PM 75.0 °F 52.0 °F 44% 30.21 in 10.0 mi ENE 6.9 mph - N/A   Scattered Clouds
3:53 PM 73.0 °F 52.0 °F 48% 30.21 in 10.0 mi ENE 8.1 mph - N/A   Scattered Clouds
4:53 PM 72.0 °F 52.0 °F 49% 30.23 in 10.0 mi NE 9.2 mph - N/A   Scattered Clouds
5:53 PM 70.0 °F 52.0 °F 53% 30.24 in 10.0 mi NNE 8.1 mph - N/A   Scattered Clouds
6:53 PM 68.0 °F 48.0 °F 49% 30.25 in 10.0 mi North 3.5 mph - N/A   Clear
7:53 PM 66.0 °F 48.9 °F 54% 30.26 in 10.0 mi Calm Calm - N/A   Clear
8:53 PM 64.0 °F 51.1 °F 63% 30.27 in 10.0 mi North 3.5 mph - N/A   Partly Cloudy
9:53 PM 64.0 °F 52.0 °F 65% 30.28 in 10.0 mi Calm Calm - N/A   Clear
10:53 PM 63.0 °F 52.0 °F 67% 30.28 in 10.0 mi Calm Calm - N/A   Partly Cloudy
11:53 PM 62.1 °F 52.0 °F 70% 30.27 in 10.0 mi Calm Calm - N/A   Partly Cloudy